This is the latest recevied weather packets stored in our database for station/object N0NB. If no packets are shown the sender has not sent any weather packets the latest 10 day(s).
| Time | Temp. | Humidity | Pressure | Rain* | Wind** | Luminosity | Snow |
|---|---|---|---|---|---|---|---|
| 1788469517 | 35.56° C | 48% | 1008.1 hPa | 0 mm | - | 579 W/m² | - |
| 1788468917 | 35.56° C | 49% | 1008.1 hPa | 0 mm | - | 599 W/m² | - |
| 1788468317 | 35.56° C | 50% | 1008.2 hPa | 0 mm | - | 615 W/m² | - |
| 1788467717 | 35.56° C | 49% | 1008.3 hPa | 0 mm | - | 635 W/m² | - |
| 1788467117 | 35.56° C | 53% | 1008.4 hPa | 0 mm | - | 652 W/m² | - |
| 1788466515 | 35° C | 51% | 1008.4 hPa | 0 mm | - | 668 W/m² | - |
| 1788465917 | 35° C | 52% | 1008.5 hPa | 0 mm | - | 682 W/m² | - |
| 1788465317 | 35° C | 51% | 1008.6 hPa | 0 mm | - | 696 W/m² | - |
| 1788464717 | 35° C | 50% | 1008.6 hPa | 0 mm | - | 708 W/m² | - |
| 1788464117 | 35° C | 52% | 1008.7 hPa | 0 mm | - | 715 W/m² | - |
| 1788463517 | 34.44° C | 51% | 1008.7 hPa | 0 mm | - | 723 W/m² | - |
| 1788462917 | 34.44° C | 53% | 1008.5 hPa | 0 mm | - | 730 W/m² | - |
| 1788462317 | 34.44° C | 54% | 1008.4 hPa | 0 mm | - | 738 W/m² | - |
| 1788461717 | 34.44° C | 54% | 1008.6 hPa | 0 mm | - | 739 W/m² | - |
| 1788461117 | 34.44° C | 53% | 1008.8 hPa | 0 mm | - | 736 W/m² | - |
| 1788460517 | 33.89° C | 55% | 1009.2 hPa | 0 mm | - | 740 W/m² | - |
| 1788459917 | 33.89° C | 55% | 1009.3 hPa | 0 mm | - | 738 W/m² | - |
| 1788459317 | 33.89° C | 55% | 1009.5 hPa | 0 mm | - | 735 W/m² | - |
| 1788458717 | 33.33° C | 57% | 1009.4 hPa | 0 mm | - | 732 W/m² | - |
| 1788458117 | 33.33° C | 55% | 1009.3 hPa | 0 mm | - | 729 W/m² | - |
| 1788457517 | 32.78° C | 58% | 1009.4 hPa | 0 mm | - | 531 W/m² | - |
| 1788456917 | 32.78° C | 58% | 1009.6 hPa | 0 mm | - | 879 W/m² | - |
| 1788456317 | 32.78° C | 57% | 1009.7 hPa | 0 mm | - | 820 W/m² | - |
| 1788455717 | 32.78° C | 58% | 1009.8 hPa | 0 mm | - | 821 W/m² | - |
| 1788455117 | 32.22° C | 59% | 1009.8 hPa | 0 mm | - | 539 W/m² | - |
* Rain latest hour (hover to see other rain measurements)
** Current wind speed in m/s (hover to see current wind gust speed)